FW0896 Weather Reports


Display with metric or nautical units.
time (UTC)temp
F
wind
direction
speed
MPH
gust
MPH
rain 1hr
in
rain 24hr
in
rain mn
in
humidity
%
barometer
mb
20260504043040 57 238 3.0 7.0 0.00 0.00 0.00 45 1004.1
20260504041537 57 232 3.0 6.0 0.00 0.00 0.00 45 1004.5
20260504040036 57 215 2.0 6.0 0.00 0.00 0.00 44 1004.8
20260504034535 58 214 2.0 5.0 0.00 0.00 0.00 44 1004.9
20260504033038 56 213 2.0 5.0 0.00 0.00 0.00 46 1005.1
20260504031532 59 195 3.0 4.0 0.00 0.00 0.00 43 1005.4
20260504030031 61 218 2.0 4.0 0.00 0.00 0.00 40 1005.5
20260504024529 61 205 2.0 4.0 0.00 0.00 0.00 38 1005.4
20260504023030 62 218 2.0 4.0 0.00 0.00 0.00 37 1005.4
20260504021530 64 310 1.0 2.0 0.00 0.00 0.00 35 1005.3
20260504020031 64 311 1.0 2.0 0.00 0.00 0.00 34 1005.3
20260504014541 65 311 0.0 2.0 0.00 0.00 0.00 35 1005.2
20260504013027 65 311 0.0 2.0 0.00 0.00 0.00 35 1005.3
20260504011526 66 312 1.0 3.0 0.00 0.00 0.00 35 1005.5
20260504010024 66 312 3.0 4.0 0.00 0.00 0.00 34 1005.6
20260504004523 67 314 4.0 6.0 0.00 0.00 0.00 33 1005.6
20260504003023 68 314 4.0 9.0 0.00 0.00 0.00 32 1005.7
20260504001525 69 308 6.0 9.0 0.00 0.00 0.00 31 1005.7
20260504000037 69 320 6.0 10.0 0.00 0.00 0.00 31 1005.7
20260503234521 70 303 8.0 14.0 0.00 0.00 0.00 31 1006.0
20260503233024 70 319 7.0 10.0 0.00 0.00 0.00 32 1005.9
20260503231520 70 312 7.0 11.0 0.00 0.00 0.00 31 1005.9
20260503230019 69 296 8.0 16.0 0.00 0.00 0.00 32 1005.9
20260503224518 70 328 7.0 13.0 0.00 0.00 0.00 32 1005.9
20260503223016 70 311 7.0 12.0 0.00 0.00 0.00 31 1005.9
20260503221517 70 307 7.0 11.0 0.00 0.00 0.00 33 1005.8
20260503220020 69 319 11.0 17.0 0.00 0.00 0.00 34 1005.9
20260503214523 70 321 9.0 16.0 0.00 0.00 0.00 33 1006.0
20260503213012 70 331 11.0 15.0 0.00 0.00 0.00 33 1006.0
20260503211513 69 323 11.0 18.0 0.00 0.00 0.00 35 1006.2
20260503210030 70 330 12.0 16.0 0.00 0.00 0.00 35 1006.4
20260503204510 70 320 9.0 15.0 0.00 0.00 0.00 35 1006.6
20260503203013 69 327 11.0 17.0 0.00 0.00 0.00 35 1006.6
20260503201506 69 297 8.0 15.0 0.00 0.00 0.00 34 1006.7
20260503200007 69 338 11.0 18.0 0.00 0.00 0.00 33 1007.0
20260503194504 69 335 13.0 21.0 0.00 0.00 0.00 32 1007.0
20260503193002 68 337 12.0 21.0 0.00 0.00 0.00 33 1007.1
20260503191502 68 321 10.0 19.0 0.00 0.00 0.00 33 1007.1
20260503190104 68 328 14.0 25.0 0.00 0.00 0.00 34 1007.2
20260503184600 68 332 15.0 19.0 0.00 0.00 0.00 35 1007.1
20260503183106 68 342 16.0 21.0 0.00 0.00 0.00 35 1007.3
20260503181558 68 327 8.0 21.0 0.00 0.00 0.00 37 1007.5
20260503180106 67 338 12.0 21.0 0.00 0.00 0.00 38 1007.6
20260503174555 67 343 12.0 21.0 0.00 0.00 0.00 34 1007.5
20260503173142 67 347 14.0 21.0 0.00 0.00 0.00 36 1007.6
20260503171553 66 340 15.0 20.0 0.00 0.00 0.00 40 1007.6
20260503090104 53 116 8.0 16.0 0.00 0.00 0.00 56 1007.4
20260503081558 53 170 9.0 18.0 0.00 0.00 0.00 62 1007.9
20260503071543 56 247 11.0 20.0 0.00 0.00 0.00 50 1010.2
20260503054536 57 224 7.0 15.0 0.00 0.00 0.00 44 1011.2
20260503053027 58 231 4.0 13.0 0.00 0.00 0.00 43 1011.2
20260503051524 58 243 6.0 15.0 0.00 0.00 0.00 43 1010.9
20260503050022 58 142 4.0 12.0 0.00 0.00 0.00 43 1010.8
20260503044534 58 252 4.0 11.0 0.00 0.00 0.00 43 1011.2